Voltar ao catálogo

CZ-6A DEB

AtivoSSO
NORAD 54436·DEBRIS·🇨🇳 China

Lançado Nov 11, 2022 de Taiyuan Satellite Launch Center

Loading…

Próximas Passagens (próximas 24 horas)

TLE

AtualizadoSource: Space-Track

Época: Sep 14, 2026, 18:51 UTC

1 54436U 22151FL  26257.78548299  .00000166  00000-0  76735-4 0  9992
2 54436  98.6022 264.7943 0102468 161.5462 198.9481 14.30076689200176

Acompanhe CZ-6A DEB em tempo real com AllMySat

Download on the App Store